Shawnee, OK

11:09 PM CDT on October 19, 2017 (GMT -0500)
Shawnee Municipal

Weather History for KSNL - February, 2014

Change the Weather History Date:

Wednesday, February 5, 2014

  Actual Average (KTIK) Record (KTIK)
Temperature  
Mean Temperature 23 °F -  
Max Temperature 32 °F 48 °F 68 °F (1999)
Min Temperature 14 °F 29 °F 8 °F (2014)
Degree Days  
Heating Degree Days 42    
Moisture  
Dew Point 15 °F    
Average Humidity 84    
Maximum Humidity 100    
Minimum Humidity 73    
Precipitation  
Precipitation 0.00 in - - ()
Sea Level Pressure  
Sea Level Pressure 30.50 in    
Wind  
Wind Speed 13 mph (North)    
Max Wind Speed 16 mph    
Max Gust Speed 23 mph    
Visibility 10 miles    
Events Snow    
Averages and records for this station are not official NWS values.
T = Trace of Precipitation, MM = Missing Value Source: NWS Daily Summary

Daily Weather History Graph

Daily Weather History Graph

Search for Another Location

Airport or City:

Trip Planner

Search our weather history database for the weather conditions in past years. The results will help you decide how hot, cold, wet, or windy it might be!

Date:

Astronomy

Feb. 05, 2014 Rise Set
Actual Time 7:23 AM CST 6:00 PM CST
Civil Twilight 6:57 AM CST 6:26 PM CST
Nautical Twilight 6:27 AM CST 6:56 PM CST
Astronomical Twilight 5:57 AM CST 7:26 PM CST
Moon 10:54 AM CST (2/5) No Moon Set
Length of Visible Light 11h 29m
Length of Day
10h 36m
Waxing Crescent, 39% of the Moon is Illuminated
Feb 5
Waxing Crescent
Feb 6
First Quarter
Feb 14
Full
Feb 22
Last Quarter
Mar 1
New

Hourly Weather History & Observations

Time (CST) Temp. Windchill Dew Point Humidity Pressure Visibility Wind Dir Wind Speed Gust Speed Precip Events Conditions
12:15 AM 32.0 °F 23.0 °F 30.2 °F 93% 30.17 in 10.0 mi NNW 11.5 mph - N/A   Overcast
12:35 AM 30.2 °F 18.9 °F 28.4 °F 93% 30.18 in 10.0 mi NNW 16.1 mph 19.6 mph N/A   Overcast
12:55 AM 28.4 °F 17.5 °F 26.6 °F 93% 30.21 in 10.0 mi NNW 13.8 mph - N/A   Overcast
1:15 AM 26.6 °F 15.2 °F 26.6 °F 100% 30.23 in 10.0 mi NNW 13.8 mph 21.9 mph N/A   Overcast
1:35 AM 26.6 °F 14.3 °F 24.8 °F 93% 30.23 in 10.0 mi NNW 16.1 mph 19.6 mph N/A   Overcast
1:55 AM 26.6 °F 14.3 °F 23.0 °F 86% 30.24 in 10.0 mi NNW 16.1 mph 20.7 mph N/A   Overcast
2:15 AM 24.8 °F 12.4 °F 23.0 °F 93% 30.24 in 10.0 mi North 15.0 mph 23.0 mph N/A   Overcast
2:35 AM 24.8 °F 12.4 °F 23.0 °F 93% 30.26 in 10.0 mi North 15.0 mph 20.7 mph N/A   Overcast
2:55 AM 26.6 °F 16.2 °F 23.0 °F 86% 30.29 in 10.0 mi North 11.5 mph 18.4 mph N/A   Overcast
3:15 AM 24.8 °F 12.9 °F 23.0 °F 93% 30.31 in 10.0 mi NNW 13.8 mph - N/A   Overcast
3:35 AM 23.0 °F 11.7 °F 21.2 °F 93% 30.32 in 10.0 mi NNW 11.5 mph - N/A   Overcast
3:55 AM 23.0 °F 11.1 °F 21.2 °F 93% 30.33 in 10.0 mi NNW 12.7 mph - N/A   Overcast
4:15 AM 21.2 °F 8.9 °F 21.2 °F 100% 30.34 in 10.0 mi NNW 12.7 mph - N/A   Overcast
4:35 AM 21.2 °F 9.5 °F 19.4 °F 93% 30.37 in 10.0 mi NNW 11.5 mph - N/A Snow Light Snow
4:55 AM 21.2 °F 8.3 °F 19.4 °F 93% 30.38 in 10.0 mi NNW 13.8 mph - N/A Snow Light Snow
5:15 AM 19.4 °F 6.0 °F 17.6 °F 93% 30.38 in 10.0 mi North 13.8 mph - N/A   Overcast
5:35 AM 19.4 °F 5.5 °F 17.6 °F 93% 30.40 in 10.0 mi NNW 15.0 mph 18.4 mph N/A Snow Light Snow
5:55 AM 17.6 °F 3.2 °F 15.8 °F 93% 30.42 in 10.0 mi North 15.0 mph 18.4 mph N/A   Overcast
6:15 AM 17.6 °F 4.3 °F 14.0 °F 86% 30.44 in 10.0 mi North 12.7 mph - N/A Snow Light Snow
6:35 AM 17.6 °F 6.4 °F 14.0 °F 86% 30.46 in 10.0 mi North 9.2 mph - N/A   Overcast
6:55 AM 17.6 °F 6.4 °F 14.0 °F 86% 30.49 in 10.0 mi NNW 9.2 mph - N/A Snow Light Snow
7:15 AM 17.6 °F 5.0 °F 14.0 °F 86% 30.49 in 10.0 mi NNW 11.5 mph - N/A   Overcast
7:35 AM 14.0 °F 2.0 °F 12.2 °F 93% 30.50 in 10.0 mi North 9.2 mph - N/A Snow Light Snow
7:55 AM 14.0 °F 0.5 °F 12.2 °F 93% 30.51 in 10.0 mi NNW 11.5 mph - N/A   Scattered Clouds
8:15 AM 15.8 °F 2.7 °F 12.2 °F 86% 30.53 in 10.0 mi North 11.5 mph - N/A Snow Light Snow
8:35 AM 17.6 °F 3.7 °F 14.0 °F 86% 30.53 in 10.0 mi North 13.8 mph - N/A   Overcast
8:55 AM 15.8 °F 1.4 °F 12.2 °F 86% 30.54 in 10.0 mi North 13.8 mph - N/A   Overcast
9:15 AM 17.6 °F 3.7 °F 14.0 °F 86% 30.55 in 10.0 mi NNW 13.8 mph - N/A   Overcast
9:35 AM 17.6 °F 2.7 °F 14.0 °F 86% 30.54 in 10.0 mi North 16.1 mph - N/A   Overcast
9:55 AM 17.6 °F 3.2 °F 14.0 °F 86% 30.55 in 10.0 mi North 15.0 mph - N/A   Overcast
10:35 AM 17.6 °F 5.0 °F 14.0 °F 86% 30.58 in 10.0 mi NNW 11.5 mph - N/A   Overcast
10:55 AM 17.6 °F 4.3 °F 12.2 °F 79% 30.58 in 10.0 mi North 12.7 mph - N/A   Mostly Cloudy
11:15 AM 19.4 °F 7.2 °F 14.0 °F 80% 30.58 in 10.0 mi North 11.5 mph - N/A   Mostly Cloudy
11:35 AM 19.4 °F 6.6 °F 14.0 °F 80% 30.58 in 10.0 mi North 12.7 mph - N/A   Mostly Cloudy
11:55 AM 19.4 °F 7.2 °F 15.8 °F 86% 30.57 in 10.0 mi North 11.5 mph - N/A   Overcast
12:15 PM 21.2 °F 8.9 °F 15.8 °F 80% 30.56 in 10.0 mi North 12.7 mph - N/A   Overcast
12:35 PM 21.2 °F 9.5 °F 15.8 °F 80% 30.56 in 10.0 mi North 11.5 mph - N/A   Mostly Cloudy
12:55 PM 21.2 °F 10.9 °F 15.8 °F 80% 30.57 in 10.0 mi North 9.2 mph - N/A   Mostly Cloudy
1:15 PM 19.4 °F 10.4 °F 14.0 °F 80% 30.59 in 10.0 mi NW 6.9 mph - N/A   Overcast
1:35 PM 21.2 °F 10.9 °F 15.8 °F 80% 30.56 in 10.0 mi NNW 9.2 mph - N/A   Overcast
1:55 PM 21.2 °F 9.5 °F 15.8 °F 80% 30.55 in 10.0 mi NNW 11.5 mph - N/A   Mostly Cloudy
2:15 PM 21.2 °F 8.9 °F 15.8 °F 80% 30.54 in 10.0 mi North 12.7 mph - N/A   Mostly Cloudy
2:35 PM 21.2 °F 9.5 °F 15.8 °F 80% 30.54 in 10.0 mi North 11.5 mph - N/A   Scattered Clouds
2:55 PM 21.2 °F 10.1 °F 15.8 °F 80% 30.54 in 10.0 mi North 10.4 mph - N/A   Scattered Clouds
3:15 PM 21.2 °F 10.1 °F 15.8 °F 80% 30.56 in 10.0 mi North 10.4 mph - N/A   Mostly Cloudy
3:35 PM 21.2 °F 10.9 °F 15.8 °F 80% 30.57 in 10.0 mi NNW 9.2 mph - N/A   Scattered Clouds
3:55 PM 21.2 °F 10.9 °F 14.0 °F 74% 30.58 in 10.0 mi North 9.2 mph - N/A   Mostly Cloudy
4:15 PM 21.2 °F 10.9 °F 14.0 °F 74% 30.58 in 10.0 mi North 9.2 mph - N/A   Mostly Cloudy
4:35 PM 21.2 °F 10.1 °F 14.0 °F 74% 30.58 in 10.0 mi North 10.4 mph - N/A   Scattered Clouds
4:55 PM 21.2 °F 9.5 °F 14.0 °F 74% 30.57 in 10.0 mi North 11.5 mph 16.1 mph N/A   Scattered Clouds
5:15 PM 19.4 °F 6.0 °F 14.0 °F 80% 30.57 in 10.0 mi North 13.8 mph - N/A   Scattered Clouds
5:35 PM 19.4 °F 6.6 °F 14.0 °F 80% 30.58 in 10.0 mi North 12.7 mph - N/A   Scattered Clouds
5:55 PM 17.6 °F 5.0 °F 12.2 °F 79% 30.58 in 10.0 mi North 11.5 mph - N/A   Clear
6:15 PM 17.6 °F 5.0 °F 12.2 °F 79% 30.58 in 10.0 mi North 11.5 mph 17.3 mph N/A   Clear
6:35 PM 17.6 °F 5.7 °F 12.2 °F 79% 30.59 in 10.0 mi North 10.4 mph - N/A   Clear
6:55 PM 17.6 °F 5.0 °F 12.2 °F 79% 30.58 in 10.0 mi North 11.5 mph - N/A   Clear
7:15 PM 17.6 °F 4.3 °F 12.2 °F 79% 30.59 in 10.0 mi North 12.7 mph - N/A   Clear
7:35 PM 17.6 °F 5.7 °F 12.2 °F 79% 30.60 in 10.0 mi North 10.4 mph - N/A   Clear
7:55 PM 17.6 °F 3.7 °F 12.2 °F 79% 30.61 in 10.0 mi North 13.8 mph - N/A   Mostly Cloudy
8:15 PM 17.6 °F 5.0 °F 10.4 °F 73% 30.60 in 10.0 mi North 11.5 mph - N/A   Mostly Cloudy
8:35 PM 17.6 °F 3.7 °F 10.4 °F 73% 30.59 in 10.0 mi North 13.8 mph - N/A   Mostly Cloudy
8:55 PM 15.8 °F 3.4 °F 10.4 °F 79% 30.59 in 10.0 mi North 10.4 mph - N/A   Overcast
9:15 PM 14.0 °F 1.2 °F 10.4 °F 86% 30.60 in 10.0 mi North 10.4 mph 17.3 mph N/A   Scattered Clouds
9:35 PM 14.0 °F 2.0 °F 8.6 °F 79% 30.60 in 10.0 mi North 9.2 mph - N/A   Clear
9:55 PM 14.0 °F 2.9 °F 8.6 °F 79% 30.61 in 10.0 mi North 8.1 mph - N/A   Mostly Cloudy
10:15 PM 14.0 °F 2.0 °F 8.6 °F 79% 30.62 in 10.0 mi NNE 9.2 mph - N/A   Mostly Cloudy
10:35 PM 14.0 °F 0.5 °F 8.6 °F 79% 30.62 in 10.0 mi NNE 11.5 mph 16.1 mph N/A   Mostly Cloudy
10:55 PM 14.0 °F 0.5 °F 8.6 °F 79% 30.61 in 10.0 mi North 11.5 mph - N/A   Overcast
11:15 PM 14.0 °F 2.9 °F 8.6 °F 79% 30.61 in 10.0 mi NNE 8.1 mph - N/A   Overcast
11:35 PM 14.0 °F -0.2 °F 8.6 °F 79% 30.61 in 10.0 mi North 12.7 mph - N/A   Overcast
11:55 PM 14.0 °F -0.2 °F 8.6 °F 79% 30.60 in 10.0 mi North 12.7 mph - N/A   Overcast